Location: Firnhaberau
(48.4049°N, 10.8963°E)
Time: 20:29:16
(UTC+00:00)

X-37B - Visible Passes

Search period start: 22 June 2021 00:00
Search period end: 02 July 2021 00:00
Orbit: 386 x 389 km, 45.0° (Epoch: 10 June)

Date Brightness Start Highest point End Pass type
(mag) Time Alt. Az. Time Alt. Az. Time Alt. Az.
22 Jun 2.9 00:10:40 15° ESE 00:10:40 15° ESE 00:11:19 10° ESE visible
22 Jun 1.8 01:43:04 16° WSW 01:44:31 22° SSW 01:47:04 10° SSE visible
22 Jun 2.9 21:30:57 10° SW 21:31:22 12° SW 21:31:22 12° SW visible
23 Jun 2.0 20:33:10 10° SSW 20:35:30 19° SSE 20:37:46 10° ESE visible
23 Jun 2.1 22:08:41 10° WSW 22:10:08 23° SW 22:10:08 23° SW visible
24 Jun 1.2 21:10:31 10° SW 21:13:27 34° SSE 21:15:11 19° ESE visible
24 Jun 2.8 22:46:45 10° WSW 22:47:29 15° WSW 22:47:29 15° WSW visible
25 Jun 1.6 20:12:29 10° SW 20:15:13 27° SSE 20:17:58 10° ESE visible
25 Jun 0.8 21:48:27 10° WSW 21:51:31 45° S 21:51:53 42° SSE visible
26 Jun 1.0 20:50:12 10° WSW 20:53:15 41° S 20:56:01 12° ESE visible
26 Jun 2.1 22:26:37 10° W 22:28:17 25° WSW 22:28:17 25° WSW visible
27 Jun 0.9 21:28:16 10° WSW 21:31:20 43° S 21:32:18 32° SE visible
28 Jun 0.9 20:29:58 10° WSW 20:33:03 45° S 20:36:07 10° ESE visible
28 Jun 2.0 22:06:32 10° W 22:08:29 25° SW 22:08:29 25° SW visible
29 Jun 1.2 21:08:08 10° W 21:11:08 37° S 21:12:24 25° SE visible
30 Jun 1.1 20:09:48 10° WSW 20:12:51 43° S 20:15:55 10° ESE visible
30 Jun 2.2 21:46:34 10° WSW 21:48:33 21° SW 21:48:33 21° SW visible
01 Jul 1.6 20:48:04 10° W 20:50:54 29° SSW 20:52:27 19° SSE visible
